map of GDN home
GDN - Airport
Location
City:  Gdansk, Pomorskie, Poland
Name:Lech Walesa
Old (Alt.):Rebiechowo
ICAO:EPGD
IATA:GDN

Details
Type:Airport (Aerodrome, Airfield)
Use:International (customs port of entry)
Latitude:5422'39"N (54.377569)
Longitude:1827'58"E (18.466222)
Datum:WGS 1984
Elevation:489 ft (149 m)
Variation:5.55E (WMM2015 magnetic declination)
0.14 annual change
Runways:1
Longest:9186 × 148 ft (2800 × 45 m), paved

Time
Time Zone:UTC+1 (DST+2)
Local Time:

Weather
METAR:EPGD 191400Z 28008KT CAVOK 26/12 Q1017
TAF:EPGD 191130Z 1912/2012 28010KT CAVOK
BECMG 1918/1920 VRB02KT PROB30
TEMPO 1919/2006 4000 BR

Related Locations
Nearby:
Farthest:CHT: 11442 mi / 18414 km
Waitangi [Tuuta], CIT, NZ

Find:

   beyond  
but within

Other Information
Maps:
NOTAMs:
Links:
Sources:

  
  • flag of Poland
  • flag of Pomorskie
  • flag of Gdansk
  

Sectional Chart

Flight Planning
at skyvector.com

Satellite Image

Google Maps Satellite view

 

Copyright © 2004-2018 Karl L. Swartz. All rights reserved.
The Great Circle Mapper name and logo are trademarks of the Great Circle Mapper.
All other trademarks mentioned herein belong to their respective owners.
Please see credits for attibutions and further copyright information.

  Follow gcmap on Facebook Follow gcmap on Twitter Follow gcmap on Google+ GCmap on LinkedIn

hCard Microformat

Geo Microformat